Regional Weather Roundup
Issued by NWS

Home | Current Version | Previous Version | Graphics & Text | Print | Product List | Glossary On
Versions: 1 2 3 4 5 6 7 8 9 10 11 12 13 14 15 16 17 18 19 20 21 22 23 24 25 26 27 28 29 30 31 32 33 34 35 36 37 38 39 40 41 42 43 44 45 46 47 48 49 50
000
ASUS43 KMPX 301110
RWRMN
WEATHER ROUNDUP FOR MINNESOTA
NATIONAL WEATHER SERVICE TWIN CITIES/CHANHASSEN MN
600 AM CDT THU JUL 30 2015


NOTE: "FAIR" INDICATES FEW OR NO CLOUDS BELOW 12,000 FEET WITH NO
SIGNIFICANT WEATHER AND/OR OBSTRUCTIONS TO VISIBILITY. N/A MEANS
CURRENT SKY AND/OR WEATHER CONDITIONS ARE NOT AVAILABLE.

MNZ060>063-068>070-301200-
   Twin Cities Metro

CITY           SKY/WX    TMP DP  RH WIND       PRES   REMARKS
TWIN CITIES    CLEAR     63  55  75 SW8       30.03R
ST PAUL        CLEAR     63  55  75 CALM      30.03R
CRYSTAL        CLEAR     67  54  63 W12       30.01R
BLAINE         CLEAR     68  55  64 W7        30.01S
LAKEVILLE      CLEAR     59  55  88 W5        30.04S
EDEN PRAIRIE   CLEAR     60  55  83 SW7       30.03R
SOUTH ST PAUL  CLEAR     65  55  69 W13       30.02R
LAKE ELMO      FAIR      63  55  77 W5        30.03R
$$
MNZ001>005-007-008-013>017-022>024-027-028-301200-
   Northwest Minnesota

CITY           SKY/WX    TMP DP  RH WIND       PRES   REMARKS
BEMIDJI        CLEAR     59  56  89 W6        29.97R
HALLOCK        CLEAR     54  52  94 CALM      29.94R
ROSEAU         PTCLDY    57  54  88 SW7       29.92R
WARROAD        MOCLDY    57  54  88 SW5       29.92R
THIEF RVR FALL CLEAR     57  55  94 W7        29.96R
CROOKSTON      CLEAR     59  55  88 W7        29.97R
FOSSTON        CLEAR     54  52  94 CALM      29.99R
DETROIT LAKES  CLEAR     63  55  77 W7        30.03R
MOORHEAD       CLEAR     61  55  82 W7        30.02R
PARK RAPIDS    CLEAR     56  53  90 W5        30.00R
MAHNOMEN       FAIR      58  55  89 W7        29.99S
$$
MNZ006-009>011-018-025>026-301200-
   North Central Minnesota

CITY           SKY/WX    TMP DP  RH WIND       PRES   REMARKS
BAUDETTE       PTCLDY    55  52  89 W5        29.91R
FLAG ISLAND    CLEAR     61  55  82 NW9       29.89R
INTL FALLS     CLEAR     56  54  93 W6        29.90R
WASKISH        PTCLDY    63  59  88 W8        29.94R
BIG FORK       CLEAR     57  55  94 CALM      29.94R
LONGVILLE      CLEAR     61  57  88 W5        29.97S
GRAND RAPIDS   CLEAR     63  55  77 W8        29.95S
CRANE LAKE     CLEAR     57  54  88 W3        29.90R
ORR            CLEAR     57  52  82 W5        29.89R
COOK           CLEAR     57  54  88 W3        29.91R
WALKER         FAIR      58  55  88 W6        29.98R
$$
MNZ012-019>021-037-301200-
   Northeast Minnesota

CITY           SKY/WX    TMP DP  RH WIND       PRES   REMARKS
DULUTH         CLEAR     59  55  87 W10       29.93R
ELY            CLEAR     61  54  77 W9        29.88R
HIBBING        CLEAR     59  54  83 W5        29.93R
EVELETH        CLEAR     55  54  94 SW5       29.93R
DULUTH HARBOR  CLEAR     64  59  82 SW14      29.92R
TWO HARBORS    CLEAR     64  57  77 W6        29.89R
SILVER BAY     CLEAR     63  54  72 CALM      29.87R
GRAND MARAIS     N/A     57  50  77 VRB3      29.78R
G MARAIS ARPRT CLEAR     59  48  67 W12G21    29.82R
$$
MNZ029>031-032-039>041-046>048-054>057-064-301200-
   West Central Minnesota

CITY           SKY/WX    TMP DP  RH WIND       PRES   REMARKS
FERGUS FALLS   CLEAR     57  54  88 CALM      30.04R
WHEATON        CLEAR     61  52  72 W7        30.07S
MORRIS         CLEAR     59  54  82 W8        30.05R
ALEXANDRIA     CLEAR     62  53  72 W13       30.06R
ELBOW LAKE     FAIR      56  53  88 W6        30.05R
WADENA         CLEAR     57  54  88 SW5       30.01R
GLENWOOD       CLEAR     61  54  77 W9        30.06R
APPLETON       CLEAR     57  52  82 W6        30.07R
BENSON         CLEAR     57  52  82 W5        30.06R
ORTONVILLE     CLEAR     63  54  72 W6        30.08R
MADISON        CLEAR     57  52  82 W6        30.07S
WILLMAR        FAIR      57  54  88 W6        30.08R
$$
MNZ033>034-036-042>043-049>051-058-059-301200-
   Central Minnesota

CITY           SKY/WX    TMP DP  RH WIND       PRES   REMARKS
ST CLOUD       CLEAR     61  55  81 SW7       30.01R
SAUK CENTRE    FAIR      59  54  82 W7        30.04S
PAYNESVILLE    CLEAR     53  52  95 SW7       30.06R
AITKIN         CLEAR     63  55  77 CALM      29.97R
PINE RIVER     CLEAR     61  55  82 W3        30.02R
BRAINERD       CLEAR     62  55  77 W7        29.99R
STAPLES        CLEAR     61  54  77 W7        30.01R
LONG PRAIRIE   FAIR      59  54  82 SW6       30.03S
LITTLE FALLS   CLEAR     61  54  77 W5        30.01S
LITCHFIELD     CLEAR     61  55  82 CALM      30.06R
BUFFALO        CLEAR     61  55  80 SW3       30.04S
MAPLE LAKE     CLEAR     63  57  82 W7        30.04S
$$
MNZ037-044-045-052-053-301200-
   East Central Minnesota

CITY           SKY/WX    TMP DP  RH WIND       PRES   REMARKS
PRINCETON      CLEAR     63  55  77 SW6       30.01R
MORA           CLEAR     61  54  77 W5        30.00S
CAMBRIDGE      CLEAR     64  54  68 SW3       29.99R
RUSH CITY      MOCLDY    63  56  78 W5        29.99R
MOOSE LAKE     CLEAR     59  55  88 W6        29.95R
HINCKLEY       FAIR      59  55  88 W3        29.98R
CLOQUET        CLEAR     63  54  72 W8        29.95R
MCGREGOR       CLEAR     63  55  77 W6        29.97R
$$
MNZ071>073-080-081-089-090-097-098-301200-
   Southwest Minnesota

CITY           SKY/WX    TMP DP  RH WIND       PRES   REMARKS
MONTEVIDEO     CLEAR     59  54  82 W3        30.08S
GRANITE FALLS  CLEAR     57  54  88 SW6       30.09R
CANBY          CLEAR     64  54  69 W8        30.10R
MARSHALL       CLEAR     63  52  67 W12       30.10S
REDWOOD FALLS  CLEAR     65  53  65 W10       30.07R
OLIVIA         CLEAR     54  50  87 W7        30.06S
PIPESTONE      CLEAR     57  54  88 SW5       30.14R
WINDOM         CLEAR     57  54  88 CALM      30.11S
WORTHINGTON    CLEAR     61  54  77 SW6       30.14S
JACKSON        CLEAR     61  55  82 SW9       30.13R
TRACY          CLEAR     61  54  77 W7        30.11S
SLAYTON        CLEAR     60  54  79 CALM      30.13S
$$
MNZ065>067-074>077-082>085-091>093-301200-
   South Central Minnesota

CITY           SKY/WX    TMP DP  RH WIND       PRES   REMARKS
MANKATO        CLEAR     61  52  72 W7        30.07R
NEW ULM        CLEAR     57  54  88 SW6       30.07S
ST JAMES       CLEAR     61  55  82 SW5       30.10R
FAIRMONT       CLEAR     63  52  67 SW7       30.10R
GLENCOE        CLEAR     59  56  88 SW3       30.05S
FARIBAULT      CLEAR     61  57  88 SW6       30.06S
OWATONNA       CLEAR     59  54  82 CALM      30.07S
WASECA         CLEAR     54  52  94 SW5       30.09S
ALBERT LEA     CLEAR     63  55  77 SW3       30.10R
$$
MNZ078>079-086>088-094>096-301200-
   Southeast Minnesota

CITY           SKY/WX    TMP DP  RH WIND       PRES   REMARKS
ROCHESTER      CLEAR     60  55  83 W10       30.08S
RED WING       CLEAR     61  55  82 CALM      30.02R
STANTON        CLEAR     63  56  78 SW7       30.04R
DODGE CENTER   PTCLDY    55  54  94 W8        30.07S
WINONA         CLEAR     61  57  88 CALM      30.04S
AUSTIN         CLEAR     61  55  82 SW5       30.09R
PRESTON        CLEAR     60  54  80 W9        30.08S
$$
ABBREVIATIONS USED IN REMARKS
   TC - TEMPERATURES IN CELSIUS
  WCI - WIND CHILL INDEX
   HX - HEAT INDEX
  VSB - VISIBILITY
$$


USA.gov is the U.S. government's official web portal to all federal, state and local government web resources and services.